sat.trackr.live / text

‹ back to catalog

STARLINK-34324

NORAD 64207 · 2025-117E

PAYLOAD ACTIVE UNKNOWN

§ Identity

Operator
Country
US
Launch date
2025-05-31
Launch site
AFWTR
Launch vehicle
Mass (kg)
RCS (m²)

Purposes: comms

External: N2YO · Heavens-Above · Gunter

§ Orbital elements

Epoch: 2026-09-20T06:32:12.942528Z

Period
93.85 min
Inclination
53.1586°
Eccentricity
0.0001248
Mean motion
15.34403284 rev/d
Perigee alt
461.8 km
Apogee alt
463.5 km
Semi-major
6,840.8 km
B*
5.7121e-4
RAAN
214.6192°
Arg perigee
88.3336°
Mean anomaly
271.7809°
Rev number
7,330

§ Raw data

STARLINK-343241 64207U 25117E   26263.27237202  .00018974  00000+0  57121-3 0  99962 64207  53.1586 214.6192 0001248  88.3336 271.7809 15.34403284 73301

JSON: /api/v1/satellites/64207 · /tle

For live sub-satellite position, see the globe view (requires WebGL).

§ Visibility from observer

Set your observer location to see the next 7 days of passes ≥ 10°. The values pass through the URL so the page stays shareable.

No JS? Fill the form by hand. The geolocation button needs JavaScript.